[[{"header":{"parameterUnit":"m.s-1","parameterCategory":1,"la1":30.2991,"la2":30.254,"lo1":-89.0895,"lo2":-89.0444,"dy":0.0017,"dx":0.0017,"nx":28,"ny":28,"refTime":"2024-07-26T21:00:00:Z","depth":0,"parameterNumber":2,"parameterNumberName":"U-component_of_WINDS"},"data":[0,0,0,0,0,0,0,0,0,0,0,0,0,0,0,0,0,0,0,0,0,0,0,0,0,0,0,0,0,0,0,0,0,0,0,0,0,0,0,0,0,0,0,0,0,0,0,0,0,0,0,0,0,0,0,0,0,0,-1.033,-1.0332,0,-1.0467,-1.0468,-1.047,-1.0563,-1.0563,-1.0564,-1.0564,-1.0703,-1.0706,-1.0709,0,0,0,0,0,0,0,0,0,0,0,0,0,-1.0149,-1.0151,-1.033,-1.0332,-1.0334,-1.0466,-1.0468,-1.047,-1.0562,-1.0563,-1.0564,-1.0565,-1.0702,-1.0706,-1.0709,0,0,0,0,0,0,0,0,0,0,0,0,0,-1.025,-1.0152,-1.033,-1.0396,-1.0403,-1.0466,-1.0468,-1.0471,-1.0562,-1.0563,-1.0564,-1.0565,-1.0701,-1.0705,-1.071,-1.0718,0,0,-1.0724,-1.0726,0,0,0,0,0,0,0,0,-1.0244,-1.0257,-1.0384,-1.0391,-1.0399,-1.0499,-1.0455,-1.0554,-1.0562,-1.0502,-1.0564,-1.0566,-1.0634,-1.0644,-1.0668,-1.0725,-1.0731,-1.0724,-1.0727,-1.0729,-1.073,0,0,0,0,0,0,0,-1.0237,-1.0252,-1.0384,-1.0386,-1.0395,-1.0418,-1.0434,-1.0474,-1.0561,-1.0507,-1.0514,-1.0529,-1.0639,-1.0663,-1.0672,-1.0733,-1.0724,-1.0728,-1.0731,-1.0733,-1.0802,-1.0802,0,0,0,0,0,0,-1.022,-1.0245,-1.038,-1.0388,-1.0323,-1.042,-1.0438,-1.0466,-1.056,-1.0576,-1.0528,-1.0533,-1.0655,-1.0666,-1.0677,-1.0692,-1.0729,-1.0733,-1.0736,-1.0803,-1.0802,-1.0801,0,0,0,0,0,0,-1.0216,-1.0231,-1.0374,-1.0319,-1.0339,-1.0423,-1.0453,-1.0468,-1.0493,-1.0576,-1.0592,-1.0537,-1.0656,-1.067,-1.0707,-1.0698,-1.0735,-1.074,-1.0804,-1.0803,-1.0802,-1.0723,0,0,0,0,0,0,-1.021,-1.0229,-1.0233,-1.0318,-1.0341,-1.0402,-1.0453,-1.047,-1.05,-1.0508,-1.0589,-1.0604,-1.0658,-1.07,-1.0712,-1.0705,-1.0743,-1.0806,-1.0804,-1.0802,-1.0727,-1.0719,-1.0713,0,0,0,0,0,-1.0203,-1.0206,-1.0233,-1.0249,-1.0348,-1.0402,-1.0415,-1.0478,-1.0499,-1.0504,-1.0558,-1.0601,-1.0697,-1.0703,-1.0717,-1.0712,-1.0806,-1.0804,-1.0802,-1.073,-1.0721,-1.0713,0,0,0,0,0,0,-1.0118,-1.0218,-1.025,-1.028,-1.0331,-1.0417,-1.0425,-1.0466,-1.0513,-1.0518,-1.0593,-1.0611,-1.064,-1.068,-1.0684,-1.0725,-1.0757,-1.0758,-1.0697,-1.0689,-1.0682,-1.0672,-1.0747,0,0,0,0,0,-1.0102,-1.0138,-1.0223,-1.0242,-1.0266,-1.0341,-1.0366,-1.041,-1.0467,-1.0489,-1.0546,-1.0599,-1.0641,-1.0668,-1.0711,-1.0733,-1.0752,-1.0737,-1.073,-1.0723,-1.0723,-1.0737,-1.0731,-1.0795,-1.0795,-1.0795,0,0,-1.0071,-1.013,-1.0148,-1.0226,-1.0271,-1.0306,-1.0359,-1.0393,-1.0419,-1.0495,-1.0533,-1.0576,-1.064,-1.0669,-1.0685,-1.0703,-1.071,-1.0721,-1.0715,-1.0718,-1.0734,-1.0728,-1.0723,-1.0793,-1.0793,-1.0794,0,0,-1.0031,-1.008,-1.01,-1.0144,-1.0212,-1.0262,-1.0266,-1.0346,-1.0378,-1.0417,-1.0474,-1.0506,-1.0578,-1.0621,-1.0652,-1.0628,-1.0669,-1.064,-1.0603,-1.0616,-1.0611,-1.0607,-1.0597,-1.0593,-1.064,-1.0639,-1.0639,0,-0.9984,-1.0038,-1.0105,-1.0136,-1.0168,-1.0238,-1.0259,-1.0298,-1.0377,-1.0397,-1.0417,-1.0508,-1.0556,-1.0596,-1.059,-1.0613,-1.062,-1.0631,-1.0606,-1.0603,-1.06,-1.0592,-1.0588,-1.0635,-1.0636,-1.0636,-1.0637,0,-0.9976,-1.0013,-1.0021,-1.0095,-1.0128,-1.0153,-1.0224,-1.0249,-1.029,-1.0337,-1.0376,-1.0436,-1.0493,-1.0506,-1.0546,-1.0551,-1.056,-1.0592,-1.0626,-1.0589,-1.0582,-1.058,-1.063,-1.0631,-1.0632,-1.0633,0,0,-0.9887,-0.9997,-0.9999,-1.0033,-1.0112,-1.0142,-1.017,-1.0226,-1.0246,-1.0297,-1.0323,-1.0381,-1.0411,-1.0446,-1.0492,-1.0503,-1.0479,-1.0534,-1.0536,-1.0521,-1.0488,-1.0463,-1.0458,-1.0507,-1.0507,-1.0506,-1.0482,0,-0.9859,-0.9914,-0.9974,-1.0008,-1.0042,-1.0108,-1.0133,-1.0184,-1.0229,-1.0264,-1.0314,-1.0354,-1.039,-1.0412,-1.0426,-1.0479,-1.0473,-1.0481,-1.053,-1.0531,-1.0512,-1.0455,-1.043,-1.0404,-1.048,-1.048,-1.048,0,-0.9834,-0.9882,-0.9918,-0.9994,-1.0011,-1.0032,-1.0088,-1.0121,-1.018,-1.0212,-1.025,-1.0299,-1.0331,-1.0361,-1.0407,-1.0411,-1.0435,-1.0464,-1.0464,-1.0471,-1.0503,-1.046,-1.0398,-1.0393,-1.0477,-1.0477,-1.0477,0,-0.9765,-0.9838,-0.987,-0.9897,-0.9986,-0.9999,-1.0037,-1.0097,-1.0126,-1.0175,-1.0194,-1.0246,-1.0274,-1.0312,-1.0373,-1.0389,-1.0411,-1.0447,-1.0438,-1.0436,-1.044,-1.0439,-1.0379,-1.0455,-1.0455,-1.0455,-1.0455,0,-0.9727,-0.9747,-0.984,-0.9859,-0.9882,-0.9952,-0.9973,-1.0017,-1.007,-1.0098,-1.0159,-1.0184,-1.0263,-1.0297,-1.0345,-1.0375,-1.0387,-1.0414,-1.0426,-1.0408,-1.0405,-1.0424,-1.0428,-1.0454,-1.0455,-1.0455,-1.0455,0,-0.9654,-0.9717,-0.9755,-0.9836,-0.9857,-0.9871,-0.994,-0.9961,-1.0009,-1.0044,-1.0056,-1.0132,-1.0175,-1.024,-1.0303,-1.0335,-1.0357,-1.0378,-1.0337,-1.0345,-1.0332,-1.0332,-1.0284,-1.028,-1.0358,-1.0357,-1.0356,0,-0.9625,-0.9642,-0.9725,-0.9748,-0.9784,-0.9821,-0.9851,-0.9919,-0.9948,-1.0016,-1.0028,-1.0076,-1.0119,-1.0185,-1.0246,-1.0294,-1.0316,-1.0295,-1.0324,-1.0305,-1.0315,-1.0313,-1.0315,-1.0288,-1.0287,-1.0286,-1.0286,0,-0.9568,-0.9599,-0.964,-0.9691,-0.9725,-0.9769,-0.9816,-0.9831,-0.991,-0.9939,-0.9984,-1.0017,-1.0081,-1.0128,-1.0184,-1.0223,-1.0267,-1.0276,-1.0277,-1.0258,-1.0234,-1.0246,-1.0319,-1.0277,-1.0278,-1.0278,-1.0279,-1.0279,-0.9517,-0.9534,-0.9595,-0.9638,-0.968,-0.9722,-0.9746,-0.9796,-0.9835,-0.9893,-0.9931,-0.9974,-1.0032,-1.0112,-1.0149,-1.0183,-1.0202,-1.0203,-1.0203,-1.0202,-1.0195,-1.0228,-1.0194,-1.0194,-1.0194,-1.0195,-1.0195,0,-0.9463,-0.9505,-0.9544,-0.9607,-0.964,-0.9679,-0.9732,-0.9758,-0.9795,-0.9845,-0.9886,-0.9937,-0.9983,-1.0046,-1.0096,-1.0112,-1.0133,-1.0123,-1.0122,-1.013,-1.0176,-1.017,-1.0104,-1.0104,-1.0104,-1.0104,-1.0104,-1.0104,-0.9439,-0.947,-0.9507,-0.9559,-0.9601,-0.9644,-0.9671,-0.971,-0.975,-0.9805,-0.9843,-0.9884,-0.994,-0.9994,-1.0038,-1.0055,-1.0071,-1.0054,-1.0077,-1.0119,-1.0127,-1.0135,-1.013,-1.0057,-1.0056,-1.0029,-1.0028,-1.0028]},{"header":{"parameterUnit":"m.s-1","parameterCategory":1,"la1":30.2991,"la2":30.254,"lo1":-89.0895,"lo2":-89.0444,"dy":0.0017,"dx":0.0017,"nx":28,"ny":28,"refTime":"2024-07-26T21:00:00:Z","depth":0,"parameterNumber":3,"parameterNumberName":"V-component_of_WINDS"},"data":[0,0,0,0,0,0,0,0,0,0,0,0,0,0,0,0,0,0,0,0,0,0,0,0,0,0,0,0,0,0,0,0,0,0,0,0,0,0,0,0,0,0,0,0,0,0,0,0,0,0,0,0,0,0,0,0,0,0,2.6792,2.6792,0,2.6837,2.6837,2.6838,2.6791,2.6789,2.6787,2.6785,2.6826,2.6829,2.6832,0,0,0,0,0,0,0,0,0,0,0,0,0,2.6659,2.6662,2.6791,2.6792,2.6793,2.6836,2.6837,2.6838,2.6791,2.6789,2.6787,2.6785,2.6825,2.6829,2.6832,0,0,0,0,0,0,0,0,0,0,0,0,0,2.6711,2.6663,2.6791,2.6775,2.6774,2.6836,2.6837,2.6838,2.6792,2.6789,2.6786,2.6784,2.6824,2.6828,2.6832,2.6912,0,0,2.6845,2.6847,0,0,0,0,0,0,0,0,2.6709,2.6716,2.6777,2.6776,2.6775,2.6805,2.6805,2.6863,2.6792,2.6785,2.6785,2.6782,2.6821,2.6825,2.684,2.6914,2.6916,2.6845,2.6848,2.685,2.6851,0,0,0,0,0,0,0,2.6705,2.6714,2.6809,2.6778,2.6777,2.6763,2.6768,2.6816,2.6817,2.6785,2.6782,2.6788,2.682,2.6836,2.684,2.6916,2.6845,2.6849,2.6852,2.6853,2.7056,2.7059,0,0,0,0,0,0,2.6704,2.6711,2.6808,2.681,2.6735,2.6768,2.6773,2.6798,2.6817,2.6817,2.679,2.6786,2.683,2.6835,2.6841,2.6934,2.685,2.6854,2.6856,2.7053,2.7056,2.706,0,0,0,0,0,0,2.6701,2.6713,2.6806,2.676,2.6771,2.6773,2.6802,2.6801,2.6816,2.6821,2.682,2.6806,2.6828,2.6836,2.6895,2.6935,2.6855,2.6859,2.7049,2.7054,2.7058,2.7121,0,0,0,0,0,0,2.6698,2.6712,2.6744,2.6761,2.6774,2.686,2.6805,2.6803,2.6824,2.6818,2.6836,2.6836,2.6827,2.6889,2.6899,2.6939,2.6862,2.7046,2.7051,2.7057,2.7115,2.7127,2.7137,0,0,0,0,0,2.6693,2.6759,2.6746,2.6758,2.6814,2.6863,2.6869,2.6859,2.6828,2.6858,2.6861,2.6835,2.693,2.6895,2.6906,2.6948,2.7043,2.705,2.7056,2.711,2.7125,2.7137,0,0,0,0,0,0,2.6745,2.6761,2.6747,2.6821,2.6841,2.6855,2.6893,2.6875,2.6903,2.6896,2.688,2.6885,2.6947,2.6954,2.6915,2.7025,2.6981,2.699,2.7018,2.7032,2.7042,2.7038,2.6866,0,0,0,0,0,2.6765,2.6806,2.6817,2.6881,2.6892,2.6891,2.6912,2.6903,2.6922,2.693,2.6937,2.6955,2.6989,2.7011,2.7042,2.7117,2.7118,2.7151,2.7162,2.7171,2.7178,2.7216,2.723,2.7081,2.7081,2.7081,0,0,2.6806,2.6821,2.6847,2.6892,2.6906,2.6946,2.6898,2.6943,2.6972,2.6936,2.6992,2.6998,2.7017,2.7084,2.7114,2.7092,2.722,2.7179,2.7186,2.7188,2.7224,2.7238,2.725,2.7085,2.7085,2.7084,0,0,2.6902,2.6918,2.6972,2.6988,2.7012,2.7011,2.7024,2.7041,2.7044,2.71,2.7074,2.7107,2.7166,2.718,2.7195,2.7297,2.7273,2.7307,2.7363,2.74,2.7411,2.7422,2.7456,2.7468,2.7315,2.7315,2.7315,0,2.695,2.7012,2.7002,2.7049,2.7068,2.704,2.7093,2.7108,2.714,2.7153,2.7128,2.7201,2.7212,2.7281,2.7305,2.7319,2.7332,2.7304,2.7411,2.7421,2.7431,2.7463,2.7476,2.7319,2.7318,2.7318,2.7318,0,2.7068,2.7111,2.7152,2.7185,2.7209,2.7259,2.7255,2.728,2.7269,2.727,2.7327,2.7339,2.7372,2.7388,2.7377,2.7455,2.744,2.7414,2.7368,2.7449,2.7478,2.7491,2.7324,2.7323,2.7322,2.7321,0,0,2.7196,2.7224,2.7239,2.7253,2.7276,2.7308,2.7356,2.739,2.741,2.7434,2.7471,2.7522,2.7498,2.7515,2.7505,2.7538,2.7615,2.7507,2.7507,2.7525,2.7699,2.7717,2.7732,2.76,2.7603,2.7605,2.7697,0,2.7291,2.7375,2.7368,2.7447,2.7485,2.7459,2.75,2.7518,2.7521,2.7552,2.7553,2.7589,2.7555,2.7565,2.7597,2.7599,2.7649,2.7592,2.7633,2.7634,2.7627,2.7748,2.7767,2.7853,2.7708,2.771,2.7712,0,2.7412,2.7441,2.7524,2.7541,2.7557,2.7595,2.7624,2.7655,2.7674,2.7673,2.7693,2.7677,2.7723,2.7679,2.774,2.7702,2.7718,2.7722,2.7725,2.7726,2.7676,2.775,2.7881,2.7893,2.7731,2.7729,2.7728,0,2.7494,2.7553,2.7611,2.7624,2.7646,2.7672,2.7682,2.7699,2.772,2.7745,2.7757,2.7788,2.7803,2.7826,2.7818,2.7787,2.7881,2.7836,2.7879,2.7879,2.7898,2.7897,2.8031,2.7913,2.7913,2.7912,2.7912,0,2.7599,2.765,2.7648,2.7683,2.7739,2.773,2.7785,2.7791,2.7807,2.7841,2.782,2.7852,2.7841,2.7872,2.7866,2.7916,2.7924,2.7923,2.792,2.7924,2.7924,2.7932,2.7925,2.7916,2.7915,2.7914,2.7914,0,2.7699,2.77,2.776,2.7776,2.7782,2.7822,2.7835,2.7867,2.7868,2.7911,2.7921,2.7922,2.7957,2.7953,2.7992,2.7987,2.805,2.8041,2.8044,2.8041,2.8083,2.8079,2.8226,2.8244,2.8117,2.8118,2.8119,0,2.7765,2.7804,2.7825,2.7847,2.786,2.7896,2.7917,2.7909,2.7931,2.7956,2.7984,2.8018,2.8045,2.8102,2.8105,2.8134,2.8124,2.8174,2.8128,2.813,2.8122,2.8119,2.8122,2.8182,2.8184,2.8185,2.8186,0,2.788,2.7879,2.7911,2.7943,2.7969,2.7994,2.8016,2.8035,2.8029,2.8055,2.8092,2.8112,2.8153,2.8186,2.8214,2.8221,2.8202,2.8201,2.8212,2.8214,2.8213,2.8212,2.8066,2.8197,2.8196,2.8195,2.8194,2.8194,2.7964,2.7997,2.8017,2.8053,2.8069,2.809,2.8121,2.8126,2.8158,2.8191,2.8184,2.8225,2.8242,2.8277,2.8289,2.8319,2.83,2.8317,2.8321,2.8324,2.8328,2.8211,2.8324,2.8324,2.8324,2.8323,2.8323,0,2.8076,2.8088,2.8122,2.8154,2.8182,2.8164,2.8188,2.8211,2.8248,2.8267,2.8294,2.8335,2.8367,2.8373,2.8403,2.8426,2.8418,2.8434,2.8431,2.8433,2.8344,2.8331,2.844,2.844,2.844,2.844,2.844,2.844,2.8138,2.8193,2.8194,2.8255,2.8266,2.8307,2.8322,2.8341,2.8355,2.8403,2.843,2.8435,2.8448,2.8478,2.8506,2.8507,2.8518,2.8537,2.8534,2.8451,2.8439,2.8428,2.8415,2.854,2.854,2.862,2.8621,2.8621]}]]